Location: Saint-Gilles les Bains
(21.0539°S, 55.2287°E)
Time: 11:37:23
(UTC+04:00)

Hubble Space Telescope - Visible Passes

Search period start: 04 December 2023 00:00
Search period end: 14 December 2023 00:00
Orbit: 519 x 522 km, 28.5° (Epoch: 03 December)

Date Brightness Start Highest point End Pass type
(mag) Time Alt. Az. Time Alt. Az. Time Alt. Az.
04 Dec 2.5 03:10:08 28° S 03:10:08 28° S 03:13:11 10° ESE visible
04 Dec 2.4 04:47:13 10° SW 04:50:52 31° S 04:54:30 10° ESE visible
05 Dec 3.0 02:54:37 23° SSE 02:54:37 23° SSE 02:56:48 10° ESE visible
05 Dec 2.3 04:30:49 10° WSW 04:34:31 33° S 04:38:13 10° ESE visible
06 Dec 3.5 02:39:09 17° SE 02:39:09 17° SE 02:40:26 10° ESE visible
06 Dec 2.2 04:14:24 10° WSW 04:18:10 35° S 04:21:55 10° ESE visible
07 Dec 4.0 02:23:49 11° ESE 02:23:49 11° ESE 02:24:04 10° ESE visible
07 Dec 2.0 03:58:49 15° SW 04:01:47 39° SSE 04:05:36 10° E visible
08 Dec 1.8 03:43:39 27° SW 03:45:23 43° SSE 03:49:17 10° E visible
09 Dec 1.5 03:28:41 48° S 03:28:59 49° SSE 03:32:55 10° E visible
09 Dec 1.1 05:05:52 10° W 05:09:45 45° NNW 05:13:38 10° NE visible
09 Dec 3.0 20:25:15 10° NNW 20:25:41 12° NNW 20:25:41 12° NNW visible
10 Dec 2.2 03:13:58 35° ESE 03:13:58 35° ESE 03:16:32 10° E visible
10 Dec 1.3 04:49:30 10° W 04:53:16 37° NNW 04:57:00 10° NE visible
10 Dec 1.7 20:08:29 10° NNW 20:11:35 28° NNE 20:11:35 28° NNE visible
11 Dec 3.4 02:59:29 14° E 02:59:29 14° E 03:00:07 10° E visible
11 Dec 1.6 04:34:32 18° WNW 04:36:45 30° NNW 04:40:19 10° NE visible
11 Dec 1.3 19:51:46 10° NW 19:55:28 35° NNE 19:57:21 22° ENE visible
11 Dec 3.6 21:32:11 10° W 21:32:23 11° W 21:32:23 11° W visible
12 Dec 1.8 04:20:16 24° NNW 04:20:16 24° NNW 04:23:33 10° NNE visible
12 Dec 1.1 19:35:06 10° NW 19:38:56 43° NNE 19:42:47 10° E visible
12 Dec 2.6 21:15:45 10° W 21:17:55 28° WSW 21:17:55 28° WSW visible
13 Dec 3.0 04:06:07 12° NNE 04:06:07 12° NNE 04:06:40 10° NNE visible
13 Dec 0.9 19:18:28 10° NW 19:22:23 53° NNE 19:26:21 10° ESE visible
13 Dec 1.7 20:59:20 10° W 21:03:11 44° SSW 21:03:11 44° SSW visible
